logo tempoitalia

Diretta Meteo Oradea, Romanialunedì 31 agosto ore 08:00

Mappa
Sereno 20 °C Sereno 24 Ore: T.min 19 T.max 33
Ponente Est Km/h 14.8 Punto di rugiada: 10 °C Umidità: 52% Visibilità: 10 Km
Il sole sorge alle: 06:50 Il sole tramonta alle: 20:14
31 Agosto 2026 08:00 tempo osservato: Sereno Sereno 20 52 1016 vento: Nord E 14.8
31 Agosto 2026 07:30 tempo osservato: Sereno Sereno 19 55 1016 vento: Nord E 14.8
31 Agosto 2026 07:00 tempo osservato: Sereno Sereno 19 55 1016 vento: Nord E 14.8
31 Agosto 2026 06:30 tempo osservato: Sereno Sereno 19 55 1016 vento: Nord E 13
31 Agosto 2026 06:00 tempo osservato: Sereno Sereno 19 55 1016 vento: Nord E 13
31 Agosto 2026 05:30 tempo osservato: Sereno Sereno 19 55 1016 vento: Nord E 13
31 Agosto 2026 05:00 tempo osservato: Sereno Sereno 19 55 1016 vento: Nord E 13
31 Agosto 2026 04:30 tempo osservato: Sereno Sereno 20 52 1016 vento: Nord E 13
31 Agosto 2026 04:00 tempo osservato: Sereno Sereno 20 52 1016 vento: Nord E 14.8
31 Agosto 2026 03:30 tempo osservato: Sereno Sereno 20 52 1016 vento: Nord E 13
31 Agosto 2026 03:00 tempo osservato: Sereno Sereno 20 52 1016 vento: Nord E 13
31 Agosto 2026 02:30 tempo osservato: Sereno Sereno 21 46 1016 vento: Nord E 14.8
31 Agosto 2026 02:00 tempo osservato: Sereno Sereno 21 49 1016 vento: Nord E 14.8
31 Agosto 2026 01:30 tempo osservato: Sereno Sereno 21 49 1016 vento: Nord E 14.8
31 Agosto 2026 01:00 tempo osservato: Sereno Sereno 21 49 1016 vento: Nord E 14.8
31 Agosto 2026 00:30 tempo osservato: Sereno Sereno 22 46 1016 vento: Nord E 13
31 Agosto 2026 00:00 tempo osservato: Sereno Sereno 22 46 1016 vento: Nord E 14.8
30 Agosto 2026 23:30 tempo osservato: Sereno Sereno 22 43 1016 vento: Nord E 7.4
30 Agosto 2026 23:00 tempo osservato: Sereno Sereno 23 40 1016 vento: Nord N 3.7
30 Agosto 2026 22:30 tempo osservato: Sereno Sereno 24 38 1016 vento: Nord N 5.5
30 Agosto 2026 22:00 tempo osservato: Sereno Sereno 24 38 1016 vento: Nord N 0
30 Agosto 2026 21:30 tempo osservato: Sereno Sereno 25 36 1016 vento: Nord N 5.5
30 Agosto 2026 21:00 tempo osservato: Sereno Sereno 26 34 1015 vento: Nord N/NO 7.4
30 Agosto 2026 20:30 tempo osservato: Sereno Sereno 28 30 1015 vento: Nord N/NO 9.3
30 Agosto 2026 20:00 tempo osservato: Sereno Sereno 30 27 1015 vento: Nord NO 13
30 Agosto 2026 19:30 tempo osservato: Sereno Sereno 31 23 1015 vento: Nord O 11.1
30 Agosto 2026 19:00 tempo osservato: Sereno Sereno 32 21 1015 vento: Nord O 11.1
30 Agosto 2026 18:30 tempo osservato: Sereno Sereno 32 21 1015 vento: Nord NO 11.1
30 Agosto 2026 18:00 tempo osservato: Sereno Sereno 32 21 1015 vento: Nord O 16.7
30 Agosto 2026 17:30 tempo osservato: Sereno Sereno 32 22 1015 vento: Nord NO 11.1
30 Agosto 2026 17:00 tempo osservato: Sereno Sereno 33 21 1015 vento: Nord NO 9.3
30 Agosto 2026 16:30 tempo osservato: Sereno Sereno 32 21 1015 vento: Nord SO 11.1
30 Agosto 2026 15:30 tempo osservato: Sereno Sereno 32 21 1016 vento: Nord N 11.1
30 Agosto 2026 15:00 tempo osservato: Sereno Sereno 32 22 1016 vento: Nord O/NO 16.7
30 Agosto 2026 14:30 tempo osservato: Sereno Sereno 31 22 1016 vento: Nord SO 11.1
30 Agosto 2026 14:00 tempo osservato: Sereno Sereno 31 25 1016 vento: Nord O/SO 13
30 Agosto 2026 13:30 tempo osservato: Sereno Sereno 30 27 1016 vento: Nord O 11.1
30 Agosto 2026 13:00 tempo osservato: Sereno Sereno 30 28 1016 vento: Nord S/SO 11.1
30 Agosto 2026 12:30 tempo osservato: Sereno Sereno 29 30 1017 vento: Nord SO 14.8
30 Agosto 2026 12:00 tempo osservato: Sereno Sereno 28 34 1017 vento: Nord S/SO 13
30 Agosto 2026 11:30 tempo osservato: Sereno Sereno 28 34 1017 vento: Nord S/SO 14.8
30 Agosto 2026 11:00 tempo osservato: Sereno Sereno 27 39 1017 vento: Nord SO 14.8
30 Agosto 2026 10:30 tempo osservato: Sereno Sereno 26 47 1017 vento: Nord S/SO 16.7
30 Agosto 2026 10:00 tempo osservato: Sereno Sereno 24 53 1017 vento: Nord S/SO 16.7
30 Agosto 2026 09:30 tempo osservato: Sereno Sereno 23 60 1016 vento: Nord S/SO 16.7
30 Agosto 2026 09:00 tempo osservato: Sereno Sereno 23 60 1016 vento: Nord S/SO 16.7